SCP
-0 -0 -0 -0 -0 -0 -0 -0 -0 -0 -0 -0 -0 -0 -0 -0 -0 -0 -0 -0 -0 -0 -0 -0 -0 -0 0
0 -0 -0 -0 -0 -0 -0 -0 -0 -0 -0 -0 -0 -0 -0 0 -0 -0 -0 -0 -0 -0 -0 -0 -0 -0 0
0 0 0 0 0 0 0 -0 -0 0 0 0 0 -0 -0 -0 0 -0 -0 -0 -0 -0 -0 -0 -0 0 0
0 0 0 0 0 0 0 0 0 0 0 0 -0 -0 -0 -0 -0 -0 -0 -0 -0 0 0 0 0 0 0
0 0 0 0 0 0 0 0 0 0 0 0 0 0 0 0 0 0 0 0 0 0 0 0 0 0 0
0 0 0 0 0 0 0 0 0 0 0 0 0 0 0 0 0 0 0 0 0 0 0 0 0 0 0
0 0 0 0 0 0 0 0 0 0 0 0 0 0 0 0 0 0 0 0 0 0 0 0 0 0 0
0 0 0 0 0 0 0 0 0 0 0 0 0 0 0 0 0 0 0 0 0 0 0 0 0 0 0
0 0 0 0 0 0 0 0 0 0 0 0 0 0 0 0 0 0 0 0 0 0 0 0 0 0 0
0 0 0 0 0 0 0 0 0 0 0 0 0 0 0 0 0 0 0 0 0 0 0 0 0 0 0
0 0 0 0 0 0 0 0 0 0 0 0 0 0 0 0 0 0 0 0 0 0 0 0 0 0 0
0 0 0 0 0 0 0 0 0 0 0 0 0 0 0 0 0 0 0 0 0 0 0 0 0 0 0
0 0 0 0 0 0 0 0 0 0 0 0 0 0 0 0 0 0 0 0 0 0 0 0 0 0 0
0 0 0 0 0 0 0 0 0 0 0 0 0 0 0 0 0 0 0 0 0 0 0 0 0 0 0
0 0 0 0 0 0 0 0 0 0 0 0 0 0 0 0 0 0 0 0 0 0 0 0 0 0 0
0 0 0 0 0 0 0 0 0 0 0 0 0 0 0 0 0 0 0 0 0 0 0 0 0 0 0
Wind_Speed_500mb
26 24 20 18 16 13 12 13 10 9 6 10 11 17 23 29 24 20 20 21 21 21 19 18 18 17 17
29 27 24 21 19 16 13 11 8 7 6 8 10 13 22 31 37 33 30 25 22 21 20 19 17 16 17
31 31 28 26 23 21 18 16 12 9 9 9 10 9 13 18 26 27 26 28 25 23 23 22 20 23 23
38 34 29 27 27 25 22 19 14 12 10 14 14 6 4 10 13 13 16 20 22 21 21 21 22 24 23
37 38 36 33 32 32 28 24 19 17 17 21 19 9 5 5 4 7 7 9 13 15 15 14 18 19 22
39 37 42 42 43 39 35 31 25 24 24 25 28 13 10 10 6 4 4 3 10 8 8 9 13 16 17
44 43 42 42 38 35 38 33 30 29 26 39 29 15 15 11 8 4 2 1 4 2 6 7 10 14 19
44 43 43 44 38 34 34 35 33 31 31 35 27 22 19 12 11 4 4 6 2 2 6 10 12 16 18
42 44 42 38 38 37 38 38 34 33 34 34 32 28 24 16 15 11 12 6 4 0 5 8 9 10 13
42 47 43 40 41 41 42 41 38 34 37 35 35 29 24 19 18 17 15 10 5 6 8 10 6 8 10
45 50 45 44 44 42 43 44 46 45 43 40 35 25 21 19 19 16 15 11 11 13 13 11 8 8 9
50 53 51 48 48 43 45 43 47 47 44 36 29 23 22 21 20 20 18 20 18 17 19 16 12 9 9
56 56 57 56 50 47 41 36 40 39 37 34 29 26 27 24 21 22 23 22 26 22 15 15 12 6 0
58 58 58 56 54 49 44 36 34 41 38 32 29 28 29 28 29 25 17 20 22 21 10 8 9 7 7
62 60 60 61 56 57 50 41 44 42 37 35 32 34 35 32 28 24 19 13 13 16 15 7 5 8 7
62 63 61 67 68 61 53 45 48 44 40 39 40 41 38 34 27 23 21 16 12 8 11 8 5 3 2
Wind_Direction_500mb
197 199 200 195 189 180 169 161 157 144 108 75 65 59 49 39 43 56 60 61 61 60 59 55 53 51 44
209 211 209 206 203 198 193 187 186 167 141 117 105 71 67 59 45 62 56 56 56 59 58 56 50 48 44
217 216 213 212 210 209 211 210 206 197 181 157 142 100 92 76 69 65 60 54 48 50 51 47 39 37 32
211 214 216 225 224 223 222 222 219 212 202 194 177 148 113 98 81 91 64 52 54 52 54 53 49 46 40
220 212 209 214 224 229 226 222 232 215 216 221 204 190 245 207 136 122 101 79 51 44 39 42 42 32 32
224 218 209 212 220 223 222 216 226 227 226 219 215 213 258 227 164 143 117 104 5 23 24 25 21 16 20
225 224 212 211 214 220 219 219 216 227 232 228 194 236 232 205 200 192 228 340 333 11 27 19 22 13 8
226 221 213 215 213 210 210 205 207 215 220 210 236 235 230 221 207 197 248 301 355 25 39 41 47 21 24
224 217 205 209 210 207 210 212 209 211 210 225 223 239 239 225 216 201 238 232 229 294 64 46 54 31 29
217 215 206 200 207 205 209 211 212 210 208 220 226 227 228 214 209 208 219 225 181 147 128 113 78 55 46
211 211 200 198 205 206 212 214 214 216 214 221 226 220 215 201 202 200 194 192 187 163 149 129 111 90 74
211 210 197 201 204 206 208 213 214 219 218 209 202 200 192 188 187 198 200 180 179 168 153 139 124 99 79
211 205 204 202 203 209 211 216 216 202 197 195 191 186 186 189 191 170 171 168 158 157 164 143 138 137 86
214 215 210 200 198 203 205 209 197 192 191 190 189 191 188 183 171 158 162 165 166 168 198 186 175 215 240
211 209 203 199 202 201 201 202 194 190 189 190 191 184 175 172 170 164 165 171 190 199 196 244 216 229 232
211 210 211 208 202 200 199 199 195 191 192 189 184 176 173 172 177 174 169 173 172 189 181 201 220 246 232
Wind_Speed_850mb
26 24 20 18 16 13 12 13 10 9 6 10 11 17 23 29 24 20 20 21 21 21 19 18 18 17 17
29 27 24 21 19 16 13 11 8 7 6 8 10 13 22 31 37 33 30 25 22 21 20 19 17 16 17
31 31 28 26 23 21 18 16 12 9 9 9 10 9 13 18 26 27 26 28 25 23 23 22 20 23 23
38 34 29 27 27 25 22 19 14 12 10 14 14 6 4 10 13 13 16 20 22 21 21 21 22 24 23
37 38 36 33 32 32 28 24 19 17 17 21 19 9 5 5 4 7 7 9 13 15 15 14 18 19 22
39 37 42 42 43 39 35 31 25 24 24 25 28 13 10 10 6 4 4 3 10 8 8 9 13 16 17
44 43 42 42 38 35 38 33 30 29 26 39 29 15 15 11 8 4 2 1 4 2 6 7 10 14 19
44 43 43 44 38 34 34 35 33 31 31 35 27 22 19 12 11 4 4 6 2 2 6 10 12 16 18
42 44 42 38 38 37 38 38 34 33 34 34 32 28 24 16 15 11 12 6 4 0 5 8 9 10 13
42 47 43 40 41 41 42 41 38 34 37 35 35 29 24 19 18 17 15 10 5 6 8 10 6 8 10
45 50 45 44 44 42 43 44 46 45 43 40 35 25 21 19 19 16 15 11 11 13 13 11 8 8 9
50 53 51 48 48 43 45 43 47 47 44 36 29 23 22 21 20 20 18 20 18 17 19 16 12 9 9
56 56 57 56 50 47 41 36 40 39 37 34 29 26 27 24 21 22 23 22 26 22 15 15 12 6 0
58 58 58 56 54 49 44 36 34 41 38 32 29 28 29 28 29 25 17 20 22 21 10 8 9 7 7
62 60 60 61 56 57 50 41 44 42 37 35 32 34 35 32 28 24 19 13 13 16 15 7 5 8 7
62 63 61 67 68 61 53 45 48 44 40 39 40 41 38 34 27 23 21 16 12 8 11 8 5 3 2
Wind_Direction_850mb
197 199 200 195 189 180 169 161 157 144 108 75 65 59 49 39 43 56 60 61 61 60 59 55 53 51 44
209 211 209 206 203 198 193 187 186 167 141 117 105 71 67 59 45 62 56 56 56 59 58 56 50 48 44
217 216 213 212 210 209 211 210 206 197 181 157 142 100 92 76 69 65 60 54 48 50 51 47 39 37 32
211 214 216 225 224 223 222 222 219 212 202 194 177 148 113 98 81 91 64 52 54 52 54 53 49 46 40
220 212 209 214 224 229 226 222 232 215 216 221 204 190 245 207 136 122 101 79 51 44 39 42 42 32 32
224 218 209 212 220 223 222 216 226 227 226 219 215 213 258 227 164 143 117 104 5 23 24 25 21 16 20
225 224 212 211 214 220 219 219 216 227 232 228 194 236 232 205 200 192 228 340 333 11 27 19 22 13 8
226 221 213 215 213 210 210 205 207 215 220 210 236 235 230 221 207 197 248 301 355 25 39 41 47 21 24
224 217 205 209 210 207 210 212 209 211 210 225 223 239 239 225 216 201 238 232 229 294 64 46 54 31 29
217 215 206 200 207 205 209 211 212 210 208 220 226 227 228 214 209 208 219 225 181 147 128 113 78 55 46
211 211 200 198 205 206 212 214 214 216 214 221 226 220 215 201 202 200 194 192 187 163 149 129 111 90 74
211 210 197 201 204 206 208 213 214 219 218 209 202 200 192 188 187 198 200 180 179 168 153 139 124 99 79
211 205 204 202 203 209 211 216 216 202 197 195 191 186 186 189 191 170 171 168 158 157 164 143 138 137 86
214 215 210 200 198 203 205 209 197 192 191 190 189 191 188 183 171 158 162 165 166 168 198 186 175 215 240
211 209 203 199 202 201 201 202 194 190 189 190 191 184 175 172 170 164 165 171 190 199 196 244 216 229 232
211 210 211 208 202 200 199 199 195 191 192 189 184 176 173 172 177 174 169 173 172 189 181 201 220 246 232